Home   Weather   Ehingen (Donau)   Past weeks

Flag for Germany Past Weather in Ehingen (Donau), Baden-Württemberg, Germany — Yesterday and Last 2 Weeks

Now
36 °F

Light rain. Fog.


Feels Like: 36 °F
Forecast: 34 / 40 °F
Wind: No wind

Location: Laupheim Airport

Current Time: Apr 26, 2017 at 11:47:51 pm

Latest Report: Apr 26, 2017 at 10:54 pm


Visibility: 2 mi

Pressure: 29.89 "Hg (28.06 "Hg at 508m altitude)

Humidity: 93%

Dew Point: 34 °F

Location of Ehingen (Donau)Location

Past Weather in Ehingen (Donau) — Graph

°F

Ehingen (Donau) Temperature Yesterday

Maximum temperature yesterday: 55 °F (at 1:20 pm)
Minimum temperature yesterday: 37 °F (at 11:20 pm)
Average temperature yesterday: 49 °F

High & Low Weather Summary for the Past Weeks

 TemperatureHumidityPressure
High64 °F (Apr 12, 4:20 pm)100% (Apr 18, 2:58 am)30.51 "Hg (Apr 18, 2:58 am)
Low27 °F (Apr 20, 4:20 am)32% (Apr 12, 3:20 pm)29.74 "Hg (Apr 25, 4:20 am)
Average42 °F71%30.11 "Hg
* Reported Apr 11 10:20 pm — Apr 26 10:04 pm, Ehingen (Donau), Weather by CustomWeather, © 2017

Note: Actual official high and low records may vary slightly from our data, if they occured in-between our weather recording intervals... More about our weather records

Advertising

Ehingen (Donau) Weather History for the Previous 24 Hours

Scroll right to see more
 ConditionsComfort  
Time TempWeatherWind HumidityBarometerVisibility
10:04 pm
Wed, Apr 26
36 °FLight rain. Fog.1 mph93%29.89 "Hg3 mi
9:20 pm36 °FLight rain. Partly cloudy.1 mph93%29.86 "Hg4 mi
8:20 pm36 °FPartly sunny.5 mph93%29.86 "Hg4 mi
7:20 pm37 °FBroken clouds.3 mph93%29.83 "Hg5 mi
6:20 pm37 °FLow clouds.1 mph87%29.86 "Hg4 mi
5:20 pm37 °FLight rain. Low clouds.2 mph81%29.86 "Hg4 mi
4:20 pm36 °FRain. Low clouds.6 mph93%29.86 "Hg4 mi
3:20 pm36 °FRain. Low clouds.5 mph87%29.83 "Hg4 mi
2:20 pm36 °FRain. Fog.3 mph87%29.83 "Hg3 mi
1:51 pm36 °FLight rain. Fog.6 mph87%29.83 "Hg3 mi
1:36 pm34 °FLight rain. Fog.6 mph93%29.83 "Hg2 mi
1:01 pm34 °FRain. Low clouds.5 mph93%29.83 "Hg1 mi
12:20 pm34 °FRain. Low clouds.5 mph93%29.83 "Hg1 mi
11:20 am34 °FHeavy snow. Low clouds.3 mph93%29.80 "Hg1 mi
10:20 am32 °FSnow. Ice fog.2 mph100%29.77 "Hg1 mi
9:20 am32 °FHeavy snow. Low clouds.2 mph100%29.77 "Hg1 mi
8:20 am32 °FHeavy snow. Low clouds.No wind100%29.77 "Hg1 mi
7:20 am32 °FSnow. Low clouds.2 mph100%29.77 "Hg1 mi
6:38 am32 °FSnow. Low clouds.2 mph100%29.74 "Hg1 mi
5:45 am32 °FHeavy snow. Low clouds.3 mph100%29.74 "Hg1 mi
5:30 am32 °FHeavy snow. Low clouds.2 mph100%29.74 "Hg1 mi
4:36 am32 °FSnow. Low clouds.3 mph100%29.74 "Hg1 mi
3:41 am32 °FHeavy snow. Low clouds.1 mph100%29.77 "Hg1 mi
3:20 am32 °FSnow. Low clouds.1 mph100%29.77 "Hg1 mi
2:20 am32 °FSnow. Low clouds.2 mph100%29.77 "Hg1 mi
1:33 am32 °FSnow. Ice fog.3 mph100%29.77 "Hg1 mi
12:41 am36 °FRain. Low clouds.8 mph93%29.77 "Hg4 mi
12:20 am36 °FRain. Mostly cloudy.9 mph93%29.77 "Hg6 mi
11:20 pm
Tue, Apr 25
37 °FRain. Low clouds.7 mph93%29.77 "HgN/A
Weather by CustomWeather, © 2017

See weather overviewHow to use our weather pages